sat.trackr.live / text

‹ back to catalog

ONEWEB-0112

NORAD 48051 · 2021-025K

PAYLOAD ACTIVE UNKNOWN

§ Identity

Operator
Country
UK
Launch date
2021-03-25
Launch site
VOSTO
Launch vehicle
Mass (kg)
RCS (m²)

Purposes: comms

External: N2YO · Heavens-Above · Gunter

§ Orbital elements

Epoch: 2026-05-24T22:50:27.255840Z

Period
109.63 min
Inclination
87.8951°
Eccentricity
0.0001537
Mean motion
13.13468944 rev/d
Perigee alt
1,208.6 km
Apogee alt
1,210.9 km
Semi-major
7,587.9 km
B*
1.0795e-3
RAAN
324.8360°
Arg perigee
93.2579°
Mean anomaly
266.8726°
Rev number
25,054

§ Raw data

ONEWEB-01121 48051U 21025K   26144.95170435  .00000407  00000+0  10795-2 0  99932 48051  87.8951 324.8360 0001537  93.2579 266.8726 13.13468944250541

JSON: /api/v1/satellites/48051 · /tle

For live sub-satellite position, see the globe view (requires WebGL).

§ Visibility from observer

Set your observer location to see the next 7 days of passes ≥ 10°. The values pass through the URL so the page stays shareable.

No JS? Fill the form by hand. The geolocation button needs JavaScript.